CZ-6A DEB, 54489

Orbit data source: Space-Track

CZ-6A DEB, 54489 is space debris in SSO originally from a launch on Fri, 11 Nov 2022 UTC launched from the Taiyaun Space Center, China (TSC). Debris objects in space refer to the collection of defunct objects orbiting the Earth. Examples of debris include non-operational satellites, rocket bodies, and fragments generated from explosions, collisions, or faulty payload assembly.

Loading next visibility...
Identifier
54489, 2022-151HR
Orbit
SSO
Country
Flag of CNCN / PRC
Related business
Manufacturer
SAST
Mission
Spacecraft
Bus & Motor
Unknown
Mass
Unknown
Launch date (UTC)
2022-11-11 (4 years ago)
Launch vehicle
Unknown
Launch site
Taiyaun Space Center, China (TSC)
Object type
Payload
Rocket body
Debris
Shape & HBR
Unknown shape, 0.1 m
Radar Cross Section
Medium (>0.1 m² and <1 m²)

Expand to show TLE details & history
Last TLE update: 6 hours ago

TLE from 6 hours ago
0 CZ-6A DEB
1 54489U 22151HR  26236.44159750  .00008887  00000-0  15294-2 0  9999
2 54489  98.6255 299.1962 0072206  94.4275 266.5181 14.67113674199483
Epoch: 2026-08-24T10:35Z
TLE epoch observation values (Epoch: 2026-08-24T10:35:54.024Z)
Latitude
-0.00011°
Longitude
167.49787°
Altitude
676.737 km
Speed
7.517 km/s
True Right ascension
19h 56m 47s
True Declination
0° 00' 00"
Sunlit
Object was in full shadow at epoch
Visualization orbit readout
Latitude
Unknown
Longitude
Unknown
Altitude
Unknown
Speed
Unknown
Apparent Right ascension
Unknown
Apparent Declination
Unknown
Sunlit
N/A
Visualization observer readout
Local Sidereal Time
07:26:00
Azimuth
Unknown
Elevation
Unknown
Doppler factor
Unknown
Orbital elements
Apogee altitude
718.262 km
Perigee altitude
616.516 km
Semi-major axis
7,045.526 km
Eccentricity
0.00722
Inclination
98.6255°
RAAN
299.1962°
Arg. of periapsis
94.4275°
True anomaly
265.69269°
Mean anomaly
266.5181°
Eccentric anomaly
266.10535°
Mean motion
3.67006 °/min
Orbital period
98.09 mins
BSTAR
0.0015294
Loading maneuver chart data...
Computing Atmospheric mass density...
Loading historical data...
Loading historical data...
Loading historical data...
Loading historical data...
Loading historical data...
Loading historical data...
Loading historical data...

Documentation

Showing up to 5 results
|